Time,TemperatureF,DewpointF,PressureIn,WindDirection,WindDirectionDegrees,WindSpeedMPH,WindSpeedGustMPH,Humidity,HourlyPrecipIn,Conditions,Clouds,dailyrainin,SoftwareType,DateUTC
2013-02-01 00:30:00,37.8,24.8,30.04,East,86,3.0,4.0,59,0.00,,---,0.00,VWS V12.07,2013-02-01 05:30:00,
2013-02-01 01:00:00,38.0,25.0,30.03,SE,146,2.0,4.0,59,0.00,,---,0.00,VWS V12.07,2013-02-01 06:00:00,
2013-02-01 01:30:00,37.5,25.3,30.02,North,355,1.0,9.0,61,0.00,,---,0.00,VWS V12.07,2013-02-01 06:30:00,
2013-02-01 02:00:00,38.5,25.0,30.03,SE,136,2.0,4.0,58,0.00,,---,0.00,VWS V12.07,2013-02-01 07:00:00,
2013-02-01 02:30:00,38.8,25.3,30.03,East,98,2.0,5.0,58,0.00,,---,0.00,VWS V12.07,2013-02-01 07:30:00,
2013-02-01 03:00:00,38.8,26.9,30.02,ENE,67,0.0,7.0,62,0.00,,---,0.00,VWS V12.07,2013-02-01 08:00:00,
2013-02-01 03:30:00,38.5,26.6,30.02,NW,309,1.0,9.0,62,0.00,,---,0.00,VWS V12.07,2013-02-01 08:30:00,
2013-02-01 04:00:00,37.9,28.6,30.03,NNE,33,3.0,13.0,69,0.00,,---,0.00,VWS V12.07,2013-02-01 09:00:00,
2013-02-01 04:30:00,34.0,30.0,30.06,NE,42,3.0,9.0,85,0.00,,---,0.00,VWS V12.07,2013-02-01 09:30:00,
2013-02-01 05:00:00,31.9,29.0,30.07,ENE,64,7.0,11.0,89,0.00,,---,0.00,VWS V12.07,2013-02-01 10:00:00,
2013-02-01 05:30:00,30.0,25.5,30.11,North,355,5.0,9.0,83,0.00,,---,0.00,VWS V12.07,2013-02-01 10:30:00,
2013-02-01 06:00:00,29.0,22.7,30.13,NE,36,3.0,6.0,77,0.00,,---,0.00,VWS V12.07,2013-02-01 11:00:00,
2013-02-01 06:30:00,26.7,17.6,30.17,NW,324,3.0,10.0,68,0.00,,---,0.00,VWS V12.07,2013-02-01 11:30:00,
2013-02-01 07:00:00,25.3,16.2,30.19,NNW,348,1.0,5.0,68,0.00,,---,0.00,VWS V12.07,2013-02-01 12:00:00,
2013-02-01 07:30:00,24.4,16.4,30.21,NNE,19,2.0,4.0,71,0.00,,---,0.00,VWS V12.07,2013-02-01 12:30:00,
2013-02-01 08:00:00,22.9,12.2,30.23,North,355,3.0,8.0,63,0.00,,---,0.00,VWS V12.07,2013-02-01 13:00:00,
2013-02-01 08:30:00,22.4,13.8,30.25,NE,40,3.0,9.0,69,0.00,,---,0.00,VWS V12.07,2013-02-01 13:30:00,
2013-02-01 09:00:00,21.8,12.2,30.28,NNE,15,2.0,5.0,66,0.00,,---,0.00,VWS V12.07,2013-02-01 14:00:00,
2013-02-01 09:30:00,21.0,9.7,30.30,NE,51,0.0,5.0,61,0.00,,---,0.00,VWS V12.07,2013-02-01 14:30:00,
2013-02-01 10:00:00,21.1,10.1,30.31,NNE,14,3.0,12.0,62,0.00,,---,0.00,VWS V12.07,2013-02-01 15:00:00,
2013-02-01 10:30:00,22.5,11.5,30.33,NE,46,0.0,9.0,62,0.00,,---,0.00,VWS V12.07,2013-02-01 15:30:00,
2013-02-01 11:00:00,24.2,11.6,30.33,NNE,19,3.0,12.0,58,0.00,,---,0.00,VWS V12.07,2013-02-01 16:00:00,
2013-02-01 11:30:00,26.9,12.5,30.31,NNE,31,0.0,6.0,54,0.00,,---,0.00,VWS V12.07,2013-02-01 16:30:00,
2013-02-01 12:00:00,28.4,12.6,30.30,North,11,0.0,6.0,51,0.00,,---,0.00,VWS V12.07,2013-02-01 17:00:00,
2013-02-01 12:30:00,29.0,12.2,30.31,NW,321,2.0,9.0,49,0.00,,---,0.00,VWS V12.07,2013-02-01 17:30:00,
2013-02-01 13:00:00,30.1,10.3,30.30,NW,315,9.0,11.0,43,0.00,,---,0.00,VWS V12.07,2013-02-01 18:00:00,
2013-02-01 13:30:00,30.7,9.8,30.28,NNW,339,3.0,8.0,41,0.00,,---,0.00,VWS V12.07,2013-02-01 18:30:00,
2013-02-01 14:00:00,32.5,9.1,30.27,NNE,19,3.0,9.0,37,0.01,,---,0.01,VWS V12.07,2013-02-01 19:00:00,
2013-02-01 14:30:00,32.2,7.0,30.27,NNE,26,4.0,7.0,34,0.01,,---,0.01,VWS V12.07,2013-02-01 19:30:00,
2013-02-01 15:00:00,33.1,6.5,30.27,North,355,1.0,7.0,32,0.00,,---,0.01,VWS V12.07,2013-02-01 20:00:00,
2013-02-01 15:30:00,31.0,6.6,30.28,NE,43,5.0,5.0,35,0.00,,---,0.01,VWS V12.07,2013-02-01 20:30:00,
2013-02-01 16:00:00,30.1,7.0,30.29,North,9,0.0,6.0,37,0.00,,---,0.01,VWS V12.07,2013-02-01 21:00:00,
2013-02-01 16:30:00,29.3,6.9,30.31,NNE,30,1.0,4.0,38,0.00,,---,0.01,VWS V12.07,2013-02-01 21:30:00,
2013-02-01 17:00:00,28.5,8.3,30.31,North,360,0.0,3.0,42,0.00,,---,0.01,VWS V12.07,2013-02-01 22:00:00,
2013-02-01 17:30:00,27.6,8.6,30.32,North,5,0.0,1.0,44,0.00,,---,0.01,VWS V12.07,2013-02-01 22:30:00,
2013-02-01 18:00:00,26.9,8.4,30.33,North,11,0.0,4.0,45,0.00,,---,0.01,VWS V12.07,2013-02-01 23:00:00,
2013-02-01 18:30:00,26.1,9.6,30.34,North,11,0.0,0.0,49,0.00,,---,0.01,VWS V12.07,2013-02-01 23:30:00,
2013-02-01 19:00:00,25.0,10.3,30.35,NNE,20,0.0,0.0,53,0.00,,---,0.01,VWS V12.07,2013-02-02 00:00:00,
2013-02-01 19:30:00,24.1,11.5,30.37,NNE,20,0.0,0.0,58,0.00,,---,0.01,VWS V12.07,2013-02-02 00:30:00,
2013-02-01 20:00:00,23.0,10.8,30.37,NNE,20,0.0,0.0,59,0.00,,---,0.01,VWS V12.07,2013-02-02 01:00:00,
2013-02-01 20:30:00,22.4,11.0,30.38,NNE,20,0.0,0.0,61,0.00,,---,0.01,VWS V12.07,2013-02-02 01:30:00,
2013-02-01 21:00:00,22.1,11.4,30.38,NNE,20,0.0,0.0,63,0.00,,---,0.01,VWS V12.07,2013-02-02 02:00:00,
2013-02-01 21:30:00,21.3,9.6,30.37,NNE,20,0.0,0.0,60,0.00,,---,0.01,VWS V12.07,2013-02-02 02:30:00,
2013-02-01 22:00:00,20.6,11.1,30.36,NNE,20,0.0,0.0,66,0.00,,---,0.01,VWS V12.07,2013-02-02 03:00:00,
2013-02-01 22:30:00,19.7,9.9,30.37,NNE,20,0.0,0.0,65,0.00,,---,0.01,VWS V12.07,2013-02-02 03:30:00,
2013-02-01 23:00:00,19.1,10.6,30.38,NNE,20,0.0,0.0,69,0.00,,---,0.01,VWS V12.07,2013-02-02 04:00:00,
2013-02-01 23:30:00,18.4,10.9,30.38,NNE,20,0.0,0.0,72,0.00,,---,0.01,VWS V12.07,2013-02-02 04:30:00,